This is the latest recevied weather packets stored in our database for station/object K4ZZR. If no packets are shown the sender has not sent any weather packets the latest 10 day(s).
| Time | Temp. | Humidity | Pressure | Rain* | Wind** | Luminosity | Snow |
|---|---|---|---|---|---|---|---|
| 1777503225 | 26.67° C | 74% | 1012.4 hPa | 0 mm | - | 88 W/m² | - |
| 1777502922 | 27.22° C | 73% | 1012 hPa | 0 mm | - | 107 W/m² | - |
| 1777502619 | 27.22° C | 71% | 1012 hPa | 0 mm | - | 120 W/m² | - |
| 1777502316 | 27.22° C | 71% | 1012.1 hPa | 0 mm | - | 134 W/m² | - |
| 1777502013 | 26.67° C | 72% | 1012.5 hPa | 0 mm | - | 151 W/m² | - |
| 1777501710 | 27.22° C | 72% | 1012.1 hPa | 0 mm | - | 162 W/m² | - |
| 1777501408 | 26.67° C | 73% | 1012.1 hPa | 0 mm | - | 171 W/m² | - |
| 1777501105 | 27.22° C | 73% | 1012.2 hPa | 0 mm | - | 178 W/m² | - |
| 1777500803 | 27.22° C | 74% | 1012.4 hPa | 0 mm | - | 195 W/m² | - |
| 1777500500 | 27.22° C | 74% | 1012.1 hPa | 0 mm | - | 230 W/m² | - |
| 1777500196 | 27.22° C | 75% | 1012.1 hPa | 0 mm | - | 226 W/m² | - |
| 1777499893 | 27.22° C | 74% | 1012.2 hPa | 0 mm | - | 270 W/m² | - |
| 1777499589 | 27.22° C | 73% | 1012.2 hPa | 0 mm | - | 264 W/m² | - |
| 1777499287 | 27.22° C | 74% | 1012.5 hPa | 0 mm | - | 304 W/m² | - |
| 1777498984 | 27.22° C | 73% | 1012.2 hPa | 0 mm | - | 325 W/m² | - |
| 1777498680 | 27.22° C | 72% | 1012.5 hPa | 0 mm | - | 353 W/m² | - |
| 1777498376 | 27.22° C | 72% | 1012.4 hPa | 0 mm | - | 349 W/m² | - |
| 1777498074 | 27.78° C | 72% | 1012.5 hPa | 0 mm | - | 399 W/m² | - |
| 1777497770 | 27.22° C | 73% | 1012.6 hPa | 0 mm | - | 410 W/m² | - |
| 1777497467 | 27.78° C | 71% | 1012.4 hPa | 0 mm | - | 432 W/m² | - |
| 1777497163 | 27.78° C | 69% | 1012.8 hPa | 0 mm | - | 453 W/m² | - |
| 1777496860 | 27.78° C | 67% | 1012.8 hPa | 0 mm | - | 472 W/m² | - |
| 1777496557 | 27.78° C | 68% | 1012.8 hPa | 0 mm | - | 501 W/m² | - |
| 1777496253 | 27.78° C | 69% | 1012.9 hPa | 0 mm | - | 514 W/m² | - |
| 1777495950 | 27.78° C | 70% | 1012.8 hPa | 0 mm | - | 545 W/m² | - |
* Rain latest hour (hover to see other rain measurements)
** Current wind speed in m/s (hover to see current wind gust speed)